Regional Weather Roundup
Issued by NWS

Home | Current Version | Previous Version | Text Only | Print | Product List | Glossary On
Versions: 1 2 3 4 5 6 7 8 9 10 11 12 13 14 15 16 17 18 19 20 21 22 23 24 25 26 27 28 29 30 31 32 33 34 35 36 37 38 39 40 41 42 43 44 45 46 47 48 49 50
000
ASUS43 KIND 230809
RWRIN

WEATHER ROUNDUP FOR INDIANA
NATIONAL WEATHER SERVICE INDIANAPOLIS IN
400 AM EDT WED MAY 23 2018

NOTE: "FAIR" INDICATES FEW OR NO CLOUDS BELOW 12,000 FEET WITH NO
SIGNIFICANT WEATHER AND/OR OBSTRUCTIONS TO VISIBILITY.

* - STATION DOES NOT REPORT WEATHER SUCH AS PRECIPITATION OR FOG.

+ - STATION NOT QUALITY CONTROLLED BY THE NATIONAL WEATHER SERVICE.
    USE DATA WITH CAUTION...ESPECIALLY DEWPOINT AND RELATIVE
    HUMIDITY OBSERVATIONS.

INZ001>003-010>013-019-020-230900-
NORTHWEST INDIANA

CITY           SKY/WX    TMP DP  RH WIND       PRES   REMARKS
GARY /AIRPORT/   N/A     49  49 100 CALM      30.12S FOG
KNOX *+        CLOUDY    50  50 100 N3        30.12S VSB<1/4
LA PORTE +     FAIR      49  49  99 CALM      30.13R FOG
MICHIGAN CITY+ FOG       46  46 100 CALM      30.13R VSB 1/2
MONTICELLO +   FAIR      52  51  95 CALM      30.11S
RENSSELAER +   FAIR      54  50  87 CALM      30.12S FOG
VALPARAISO     FAIR      50  49  96 CALM      30.13R FOG

$$

LMZ046-743>745-230900-
SOUTHERN LAKE MICHIGAN

STATION/POSITION TIME  TEMP    WIND        PRES    WAVE
                       AIR SEA DIR/SP/G            HT
                 (UTC) (F)     (DEG/KT/KT) (MB)    (FT)
BURNS HARBOR     0740   51        CALM     1020.3R
MICHIGAN CITY    0740   49      CALM  /  1   N/A
5NW MICH CITY    0750   49 55   CALM  /  2   N/A     1

$$

INZ004-005-014>016-021>024-230900-
NORTH CENTRAL INDIANA

CITY           SKY/WX    TMP DP  RH WIND       PRES   REMARKS
GOSHEN         FAIR      51  51 100 NW3       30.12R FOG
LOGANSPORT +   MOCLDY    54  54 100 N7        30.12R
PERU/GRISSOM   CLOUDY    56  56 100 NE7       30.10R
ROCHESTER +    CLOUDY    55  55 100 NE3       30.12R
SOUTH BEND     FAIR      48  46  93 CALM      30.13R
WARSAW +       FAIR      52  52 100 CALM      30.11S FOG

$$

INZ006>009-017-018-025>027-230900-
NORTHEAST INDIANA

CITY           SKY/WX    TMP DP  RH WIND       PRES   REMARKS
ANGOLA *+        N/A     54  52  94 CALM      30.11R
AUBURN +       FAIR      54  54 100 CALM      30.11R
FORT WAYNE     FAIR      57  55  93 N5        30.10R
HUNTINGTON +   FAIR      55  54  95 CALM      30.10S

$$

INZ028-029-035-036-043>045-051>053-230900-
WEST CENTRAL INDIANA

CITY           SKY/WX    TMP DP  RH WIND       PRES   REMARKS
CRAWFORDSVL +  FAIR      56  56 100 N6        30.09F
GREENCASTLE +  FAIR      59  55  88 CALM      30.09S
LAFAYETTE      FAIR      55  55 100 N5        30.10S
TERRE HAUTE    FAIR      62  58  86 N3        30.09R

$$

INZ030>032-037>040-046>048-054>057-064-065-230900-
CENTRAL INDIANA

CITY           SKY/WX    TMP DP  RH WIND       PRES   REMARKS
ANDERSON       FAIR      57  55  92 CALM      30.10S
FISHERS *+     FAIR     N/A N/A N/A CALM      30.10R
FRANKFORT +    FAIR      59  57  91 N5        30.12R
GREENWOOD *+   FAIR      60  56  87 NE5       30.09S
INDIANAPOLIS   FAIR      61  56  83 N7        30.08S
-EAGLE CREEK   FAIR      60  56  86 N3        30.08S
KOKOMO +       MOCLDY    56  55  97 N5        30.12R
MARION +       FAIR      55  54  95 CALM      30.11R
MT COMFORT *+  FAIR      55  55 100 N6        30.09S
SHELBYVILLE    FAIR      62  56  80 N5        30.07S
ZIONSVILLE +   FAIR      56  56  98 N3        30.11

$$

INZ033-034-041-042-049-050-058-059-230900-
EAST CENTRAL INDIANA

CITY           SKY/WX    TMP DP  RH WIND       PRES   REMARKS
MUNCIE         FAIR      58  55  90 CALM      30.09R
RICHMOND +     FAIR      57  57 100 N6        30.09R

$$

INZ060-061-067>069-081>083-085>088-230900-
SOUTHWEST INDIANA

CITY           SKY/WX    TMP DP  RH WIND       PRES   REMARKS
EVANSVILLE     FAIR      71  62  73 N6        30.04R
HUNTINGBURG +  FAIR      67  63  87 N8        30.05R
WASHINGTON +   FAIR      64  58  80 N5        30.06R

$$

INZ062-063-066-070>080-084-089>092-230900-
SOUTH CENTRAL AND SOUTHEAST INDIANA

CITY           SKY/WX    TMP DP  RH WIND       PRES   REMARKS
BATESVILLE +   CLOUDY    61  61 100 CALM      30.08S
BEDFORD +      FAIR      63  57  82 N3        30.07R
BLOOMINGTON    FAIR      63  60  90 CALM      30.08R
FRENCH LICK *+ FAIR      64  55  72 NE7       30.07R
MADISON *+     FAIR      64  59  82 NE3       30.09R
NORTH VERNON + FAIR      63  57  82 N6        30.07R
SEYMOUR +      FAIR      66  57  72 N6        30.07R

$$





USA.gov is the U.S. government's official web portal to all federal, state and local government web resources and services.